Regional Weather Roundup
Issued by NWS Sterling, VA

Home | Current Version | Previous Version | Text Only | Print | Product List | Glossary Off
Versions: 1 2 3 4 5 6 7 8 9 10 11 12 13 14 15 16 17 18 19 20 21 22 23 24 25 26 27

000
ASUS41 KLWX 050310
RWRLWX

REGIONAL WEATHER ROUNDUP
NATIONAL WEATHER SERVICE BALTIMORE MD/WASHINGTON DC
1100 PM EDT WED MAY 04 2016

Note: "FAIR" indicates few or no clouds below 12,000 feet
with no significant weather and/or obstructions to visibility.
 TC=TEMPERATURE CELSIUS

 * =Non NWS site. Station does not report precipitation (e.g. rain,
    snow, etc.), thunder, or fog.

DCZ001-MDZ009-015-VAZ040>042-051-053>054-050400-
WASHINGTON METRO

CITY           SKY/WX    TMP DP  RH WIND       PRES   REMARKS
WASHINGTON NAT CLOUDY    54  51  90 NE12      29.71R
DULLES         CLOUDY    54  50  86 E8        29.69R
ANDREWS AFB    CLOUDY    52  50  93 NE8       29.69R
QUANTICO       MOCLDY    56  52  86 E13       29.70R
COLLEGE PARK*  CLOUDY    52  48  87 NE5       29.70S
LEESBURG*      LGT RAIN  54  54 100 CALM      29.70S
MANASSAS*      CLOUDY    55  54  94 E3        29.69R
GAITHERSBURG*  CLOUDY    52  46  82 E5        29.74R

$$

MDZ006>007-011-014-050400-
BALTIMORE METRO

CITY           SKY/WX    TMP DP  RH WIND       PRES   REMARKS
BWI AIRPORT    CLOUDY    52  48  86 E10       29.70S
MD SCIENCE CTR   N/A     53  48  83 MISG      29.71S
MARTIN STATE   CLOUDY    52  50  93 NE9       29.73S
ANNAPOLIS      CLOUDY    52  50  93 E9        29.71R
FORT MEADE*    CLOUDY    52  46  82 E5        29.72S

$$

MDZ012-015-019>023-050400-
MARYLAND EASTERN SHORE

CITY           SKY/WX    TMP DP  RH WIND       PRES   REMARKS
OCEAN CITY     CLOUDY    50  47  89 NE12G23   29.70S
SALISBURY      CLOUDY    50  48  93 NE15      29.70S
CAMBRIDGE*     CLOUDY    50  48  93 NE3       29.70R
EASTON*        CLOUDY   N/A N/A N/A E7        29.74S

$$

MDZ017>025-050400-
SOUTHERN MARYLAND

CITY           SKY/WX    TMP DP  RH WIND       PRES   REMARKS
PATUXENT RIVER CLOUDY    54  50  86 NE12      29.69R
ST INIGOES     CLOUDY    54  52  93 NE12      29.68R
LEONARDTOWN*   CLOUDY    52  50  93 E6        29.71R

$$

MDZ003>005-050400-
NORTH CENTRAL MARYLAND

CITY           SKY/WX    TMP DP  RH WIND       PRES   REMARKS
FREDERICK*     CLOUDY    54  52  94 NE6       29.73R
HAGERSTOWN APT CLOUDY    54  50  86 NE8       29.69S
WESTMINSTER*   CLOUDY    52  43  71 E10       29.70

$$

MDZ501>502-050400-
WESTERN MARYLAND

CITY           SKY/WX    TMP DP  RH WIND       PRES   REMARKS
OAKLAND*       MOCLDY    43  41  93 CALM      29.70S
CUMBERLAND*    MOCLDY    54  54 100 CALM      29.73S

$$

VAZ025>031-050400-
SHENANDOAH VALLEY

CITY           SKY/WX    TMP DP  RH WIND       PRES   REMARKS
WINCHESTER*    CLOUDY    55  52  88 E6        29.69R
FRONT ROYAL*   CLOUDY    52  52 100 CALM      29.68R
LURAY*         FAIR      52  52 100 NW5       29.68R
NEW MARKET*    CLOUDY    50  50  99 CALM      29.68S
STAUNTON*      CLOUDY    55  51  86 N6        29.68S
WAYNESBORO*    FAIR      50  48  92 CALM      29.67R

$$

WVZ021-048>050-054>055-050400-
EASTERN WEST VIRGINIA PANHANDLE

CITY           SKY/WX    TMP DP  RH WIND       PRES   REMARKS
MARTINSBURG    CLOUDY    54  53  97 E5        29.68S FOG
PETERSBURG*    CLOUDY    57  46  66 CALM      29.68R

$$

VAZ036>039-050-050400-
CENTRAL FOOTHILLS

CITY           SKY/WX    TMP DP  RH WIND       PRES   REMARKS
CHARLOTTESVILL LGT RAIN  56  53  90 NE7       29.67S
CULPEPER*      CLOUDY    56  54  94 CALM      29.70R
ORANGE*        RAIN      55  55 100 NE7       29.69R
GORDONSVILLE*  CLOUDY    56  55  98 CALM      29.68R
WARRENTON*     CLOUDY    56  50  80 E3        29.68S

$$

VAZ055>057-050400-
NORTH AND CENTRAL PIEDMONT

CITY           SKY/WX    TMP DP  RH WIND       PRES   REMARKS
FREDERICKSBRG* CLOUDY    55  55 100 NE6       29.69R
STAFFORD*      CLOUDY    53  51  92 E3        29.73R

$$

NCZ024-NYZ072-PAZ021-071-VAZ022-071-050400-
OTHER REGIONAL OBSERVATIONS

CITY           SKY/WX    TMP DP  RH WIND       PRES   REMARKS
NEW YORK CITY  CLOUDY    49  41  74 NE8G17    29.77F
PHILADELPHIA   CLOUDY    51  47  86 NE6       29.73F
PITTSBURGH     CLOUDY    50  45  83 NW3       29.68R
ROANOKE        CLOUDY    58  42  55 NW9       29.66S
RICHMOND       CLOUDY    55  53  93 E9        29.67R
RALEIGH        CLOUDY    60  53  77 CALM      29.65S

$$

ANZ530>537-050400-
MARINE OBSERVATIONS

STATION/POSITION TIME  TEMP    WIND        PRES
                       AIR SEA DIR/SP/G
                 (UTC) (F)     (DEG/KT/KT) (MB)
THOMAS PT LIGHT  0300   52 59   60/ 13/ 15 1007.2R
BALT KEY BRIDGE  0200   53                 1005.9S
COVE POINT       0200   53                 1005.4R
LEWISETTA        0200   56 63              1004.3R
SOLOMONS ISLAND  0200   54 60                N/A
PINEY POINT      0200           80/  8/ 10   N/A

$$





USA.gov is the U.S. government's official web portal to all federal, state and local government web resources and services.